Location: Ore Lake
(42.4733°N, 83.8017°W)
Time: 11:13:07
(UTC-04:00)

Daily predictions for brighter satellites

Satellite Brightness Start Highest point End
(mag) Time Altitude Azimuth Time Altitude Azimuth Time Altitude Azimuth
Cosmos 2219 3.2 21:43:07 10° SSW 21:48:50 72° ESE 21:54:34 10° NNE
Cosmos 2237 Rocket 3.6 21:46:12 10° N 21:50:54 25° NE 21:55:34 10° ESE
OAO 2 Rocket 4.3 21:48:26 10° SW 21:53:06 32° SSE 21:57:48 10° ESE
Cosmos 2333 4.5 21:50:43 10° NNW 21:56:24 60° ENE 22:02:05 10° SE
Cosmos 2322 4.4 21:52:24 10° NNW 21:57:58 55° WSW 22:03:30 10° S
deb Chang Zheng 4 3.5 21:54:17 10° NNE 21:58:38 77° ESE 22:02:59 10° S
CZ-4 SHROUD 4.0 21:56:15 10° SE 21:59:09 36° ENE 22:02:05 10° N
ATLAS 2AS CENTAUR R/B 3.8 21:53:25 10° SSE 21:59:22 27° ESE 22:05:41 10° NE
Sich 1 3.9 21:55:55 10° SSE 21:59:51 33° E 22:03:48 10° NNE
Cosmos 2360 Rocket 3.0 21:54:35 10° NW 22:00:03 51° WSW 22:05:29 10° S
Cosmos 1151 Rocket 3.6 21:56:42 10° NNW 22:00:58 59° W 22:05:13 10° S
Cosmos 1271 Rocket 4.0 21:59:00 10° NNE 22:02:18 26° ENE 22:05:31 11° SE
Cosmos 1328 3.8 21:59:51 10° S 22:03:48 88° E 22:07:47 10° N
Cosmos 1626 4.3 22:03:03 10° E 22:03:51 11° E 22:04:40 10° ENE
ATLAS 3B R/B 4.1 22:00:17 10° NNW 22:06:24 29° NE 22:12:11 10° E
ERS-1 Rocket 3.5 22:02:16 10° S 22:07:13 59° W 22:12:13 10° NNW
Cosmos 1633 Rocket 3.7 22:03:37 10° SSE 22:07:39 37° E 22:11:41 10° NNE
YAOGAN 6 3.5 22:04:58 10° SE 22:08:12 34° ENE 22:11:29 10° N
ERBS 3.0 22:05:11 10° SSW 22:08:22 33° SE 22:11:33 10° ENE
Cosmos 2242 Rocket 4.3 22:09:01 10° N 22:13:15 40° ENE 22:17:07 12° SE
Envisat 3.1 22:09:31 10° SSE 22:14:36 83° WSW 22:19:43 10° NNW
Cosmos 1674 4.4 22:12:10 10° SW 22:15:43 35° WNW 22:19:19 10° N
Cosmos 1703 4.2 22:14:44 11° SSE 22:17:56 31° E 22:21:25 10° NNE
SL-14 R/B 3.3 22:15:32 10° S 22:19:26 61° E 22:23:25 10° NNE
NOSS 3-1 (C) 3.6 22:15:48 10° SW 22:21:41 82° NW 22:28:17 10° NE
USA 245 3.3 22:21:00 17° ESE 22:22:08 25° ENE 22:24:06 10° NNE
Meteor 1-27 4.2 22:17:17 10° N 22:22:59 85° ENE 22:28:35 10° S
Cosmos 1805 Rocket 3.7 22:20:53 10° S 22:25:20 81° W 22:29:48 10° N
PSLV R/B 3.1 22:23:16 12° S 22:26:05 83° W 22:29:07 10° NNW
USA 32 4.3 22:23:03 10° N 22:28:11 51° E 22:32:31 14° SSE
Cosmos 220 Rocket 4.1 22:24:45 10° S 22:29:03 56° ESE 22:33:25 10° NNE
Cosmos 2227 Rocket 2.6 22:25:03 10° S 22:30:18 41° ESE 22:35:35 10° NE
Cosmos 1300 3.0 22:28:06 10° NNW 22:31:56 68° W 22:35:44 10° S
Cosmos 1937 Rocket 3.5 22:27:30 10° S 22:32:40 64° ESE 22:37:49 10° NNE
MetOp-A 4.2 22:30:23 10° SSE 22:35:39 85° WSW 22:41:03 10° NNW
Cosmos 990 Rocket 4.1 22:33:38 10° S 22:38:35 51° ESE 22:43:34 10° NNE
H-2A R/B 3.7 22:38:03 10° SSW 22:42:08 33° W 22:46:14 10° NNW
Cosmos 292 Rocket 3.8 22:37:33 10° NNW 22:42:20 82° WSW 22:46:00 17° SSE
Cosmos 1707 Rocket 4.2 22:39:35 10° NNW 22:43:51 54° W 22:48:07 10° S
SPOT 5 3.5 22:40:16 10° S 22:44:47 53° W 22:49:37 10° NNW
SL-16 R/B 3.4 22:41:45 10° N 22:46:46 31° NE 22:50:40 15° ESE
Cosmos 1666 Rocket 4.0 22:44:05 10° SSW 22:48:25 62° W 22:52:51 10° N
CZ-4B R/B 3.5 22:43:25 10° NNE 22:48:42 80° ESE 22:53:51 10° SSW
ARGOS 3.2 22:44:45 17° SSE 22:48:58 75° ENE 22:54:21 10° N
Cosmos 2333 Rocket 2.2 22:45:55 10° NNW 22:51:42 80° ENE 22:55:43 21° SSE
Cosmos 1455 2.6 22:50:22 10° N 22:54:03 46° ENE 22:55:49 26° SE
OTV 4 1.4 22:52:20 10° SW 22:54:46 28° S 22:54:46 28° S
Cosmos 1726 3.2 22:52:22 10° NNW 22:55:59 42° W 22:59:13 12° SSW
Cosmos 1241 Rocket 4.4 22:50:27 10° SSW 22:56:37 75° ESE 23:02:52 10° NE
Cosmos 2297 Rocket 2.5 22:51:53 13° S 22:56:43 47° ESE 23:02:08 10° NE
Cosmos 1346 3.1 22:57:45 33° SSE 22:58:52 60° E 23:01:52 10° NNE
Cosmos 2219 Rocket 2.4 22:53:33 10° NNW 22:59:08 69° WSW 23:03:06 20° S
DELTA 2 R/B(2) 4.0 22:57:58 10° WSW 22:59:30 40° SSW 22:59:30 40° SSW
Landsat 7 4.0 22:57:59 23° SE 23:00:47 58° ENE 23:05:28 10° N
Cosmos 1470 Rocket 3.4 22:59:12 19° S 23:02:14 74° E 23:06:33 10° NNE
Cosmos 1933 Rocket 3.5 23:00:00 19° S 23:03:09 73° E 23:07:36 10° NNE
Meteor 2-10 4.3 22:57:30 10° NNW 23:03:16 83° W 23:07:31 19° S
COSMOS 2428 4.1 22:58:21 10° NW 23:03:19 32° WSW 23:08:16 10° SSW
Meteor 1-4 Rocket 3.5 23:00:54 10° NNW 23:04:29 45° W 23:06:57 17° SSW
NOSS 0 Rocket 4.1 22:59:14 10° NNW 23:05:22 72° WSW 23:09:35 21° SSE
Cosmos 44 Rocket 4.5 23:04:46 24° SE 23:05:37 25° ESE 23:09:49 10° ENE
Lacrosse 4 Rocket 2.4 23:02:30 10° NNW 23:06:40 38° NE 23:08:55 23° ESE
SL-08 RB Rocket 3.6 23:05:02 23° S 23:07:46 85° WSW 23:12:19 10° NNW
Nadezhda 1 Rocket 3.9 23:01:55 10° N 23:08:02 82° E 23:12:17 21° S
Cosmos 1933 4.4 23:08:50 10° NNE 23:12:30 31° ENE 23:13:41 26° ESE
Terra 2.0 23:14:21 29° SE 23:16:39 59° ENE 23:21:20 10° N
H-2A R/B 2.2 23:15:25 27° SSE 23:18:25 72° ENE 23:23:52 10° N
COSMOS 2455 3.0 23:12:25 10° NNW 23:18:26 63° ENE 23:21:50 26° SE
Cosmos 1745 Rocket 4.2 23:16:55 10° SSW 23:23:05 69° W 23:29:16 10° N
Cosmos 1980 4.0 23:18:01 10° NNW 23:23:36 61° WSW 23:26:49 25° S
Tiangong 1 1.0 23:21:28 10° W 23:24:35 82° N 23:25:23 46° E
Cosmos 1048 Rocket 4.4 23:20:42 10° N 23:25:58 53° ENE 23:28:25 30° SE
Cosmos 1125 Rocket 3.6 23:23:43 26° S 23:26:34 59° ESE 23:31:48 10° NNE
Cosmos 2221 Rocket 4.2 23:25:48 10° N 23:30:11 45° ENE 23:31:33 34° ESE
Cosmos 1709 Rocket 4.0 23:27:43 28° SSE 23:31:01 62° E 23:37:02 10° NNE
Spot 4 4.0 23:29:24 34° SE 23:31:26 65° ENE 23:36:15 10° N
Cosmos 2237 Rocket 2.7 23:29:44 10° NNW 23:35:17 53° WSW 23:38:17 26° S
Cosmos 1900 4.2 23:31:46 10° NNW 23:36:47 87° WSW 23:38:38 39° SSE
OAO 2 Rocket 4.0 23:32:32 10° WSW 23:37:23 36° S 23:38:02 35° SSE
Cosmos 372 Rocket 4.4 23:36:14 35° SE 23:37:38 43° ESE 23:42:34 10° NNE
Cosmos 1869 3.6 23:33:45 10° NNW 23:37:46 62° W 23:39:13 36° SSW
Cosmos 389 Rocket 3.7 23:34:50 10° NNE 23:37:59 28° ENE 23:38:11 28° E
Cosmos 1626 2.9 23:36:48 24° SW 23:38:46 49° W 23:42:26 10° N
Cosmos 2082 4.4 23:36:45 10° SW 23:42:22 56° WNW 23:48:00 10° NNE
Cosmos 1862 Rocket 4.3 23:38:58 10° NNW 23:43:07 46° W 23:45:05 27° SSW
CARTOSAT-1 3.7 23:42:07 38° S 23:43:39 69° WSW 23:47:58 10° NNW
ATLAS 2AS CENTAUR R/B 3.2 23:42:07 10° SW 23:49:39 73° NW 23:57:47 10° NNE
IGS 5A 3.7 23:50:56 42° SSW 23:52:07 63° W 23:56:17 10° NNW
CZ-4C R/B 4.5 23:52:05 25° SW 23:53:00 29° W 23:56:04 10° NW
Cosmos 44 4.4 23:55:06 30° ESE 23:55:06 30° ESE 23:59:37 10° NE
